Weather History for KPKB - January, 2014

Change the Weather History Date:

Wednesday, January 8, 2014

  Actual Average Record
Temperature  
Mean Temperature 26 °F 32 °F  
Max Temperature 29 °F 40 °F 71 °F (1937)
Min Temperature 23 °F 23 °F -11 °F (1968)
Degree Days  
Heating Degree Days 39 34  
Month to date heating degree days 334 265  
Cooling Degree Days 0 0  
Month to date cooling degree days 0 0  
Year to date cooling degree days 0 0  
Moisture  
Dew Point 8 °F    
Average Humidity 61    
Maximum Humidity 75    
Minimum Humidity 46    
Precipitation  
Precipitation 0.00 in 0.09 in 0.28 in (2005)
Month to date precipitation 0.64 0.76  
Year to date precipitation 0.64 0.76  
Sea Level Pressure  
Sea Level Pressure 30.49 in    
Wind  
Wind Speed 5 mph (SSW)    
Max Wind Speed 14 mph    
Max Gust Speed 16 mph    
Visibility 10 miles    
Events      
T = Trace of Precipitation, MM = Missing Value Source: NWS Daily Summary

Daily Weather History Graph

Daily Weather History Graph

Search for Another Location

Airport or City:

Trip Planner

Search our weather history database for the weather conditions in past years. The results will help you decide how hot, cold, wet, or windy it might be!

Date:

Astronomy

Jan. 08, 2014 Rise Set
Actual Time 7:45 AM EST 5:19 PM EST
Civil Twilight 7:15 AM EST 5:49 PM EST
Nautical Twilight 6:42 AM EST 6:22 PM EST
Astronomical Twilight 6:10 AM EST 6:55 PM EST
Moon 12:10 PM EST (1/8) 12:51 AM EST (1/8)
Length of Visible Light 10h 33m
Length of Day
9h 33m
First Quarter, 56% of the Moon is Illuminated
Jan 8
First Quarter
Jan 15
Full
Jan 24
Last Quarter
Jan 30
New
Feb 6
First Quarter

Hourly Weather History & Observations

Time (EST) Temp. Windchill Dew Point Humidity Pressure Visibility Wind Dir Wind Speed Gust Speed Precip Events Conditions
12:53 AM 10.0 °F 1.8 °F -0.0 °F 64% 30.51 in 10.0 mi SSW 4.6 mph - N/A   Overcast
1:53 AM 10.9 °F 4.7 °F 1.0 °F 64% 30.50 in 10.0 mi South 3.5 mph - N/A   Overcast
2:53 AM 12.0 °F 4.1 °F 1.0 °F 61% 30.52 in 10.0 mi SSW 4.6 mph - N/A   Overcast
3:53 AM 10.9 °F 2.9 °F 1.9 °F 67% 30.52 in 10.0 mi South 4.6 mph - N/A   Overcast
4:53 AM 10.9 °F 2.9 °F 1.9 °F 67% 30.52 in 10.0 mi South 4.6 mph - N/A   Mostly Cloudy
5:53 AM 10.0 °F 1.8 °F 1.0 °F 67% 30.53 in 10.0 mi South 4.6 mph - N/A   Clear
6:53 AM 10.0 °F 1.8 °F 1.0 °F 67% 30.53 in 10.0 mi South 4.6 mph - N/A   Partly Cloudy
7:53 AM 10.0 °F 1.8 °F 1.0 °F 67% 30.55 in 10.0 mi South 4.6 mph - N/A   Partly Cloudy
8:53 AM 12.0 °F 1.5 °F 1.9 °F 64% 30.56 in 10.0 mi South 6.9 mph - N/A   Clear
9:53 AM 17.1 °F 5.0 °F 3.0 °F 54% 30.56 in 10.0 mi SSW 10.4 mph - N/A   Clear
10:53 AM 19.9 °F 10.1 °F 6.1 °F 55% 30.55 in 10.0 mi South 8.1 mph - N/A   Clear
11:53 AM 24.1 °F 13.7 °F 7.0 °F 48% 30.48 in - West 10.4 mph - N/A   Unknown
12:53 PM 24.1 °F 14.4 °F 9.0 °F 53% 30.44 in 10.0 mi SW 9.2 mph - N/A   Mostly Cloudy
1:53 PM 26.1 °F 16.8 °F 10.0 °F 51% 30.42 in 10.0 mi South 9.2 mph - N/A   Clear
2:53 PM 27.0 °F 19.5 °F 10.9 °F 51% 30.42 in 10.0 mi SW 6.9 mph - N/A   Mostly Cloudy
3:53 PM 28.0 °F 20.0 °F 10.9 °F 49% 30.43 in 10.0 mi SSW 8.1 mph - N/A   Overcast
4:53 PM 28.0 °F 20.8 °F 12.9 °F 53% 30.43 in 10.0 mi South 6.9 mph - N/A   Mostly Cloudy
5:53 PM 28.0 °F 24.2 °F 12.9 °F 53% 30.44 in 10.0 mi South 3.5 mph - N/A   Overcast
6:53 PM 28.9 °F - 12.9 °F 51% 30.45 in 10.0 mi Calm Calm - N/A   Overcast
7:53 PM 28.9 °F - 15.1 °F 56% 30.45 in 10.0 mi Calm Calm - N/A   Overcast
8:53 PM 28.9 °F - 15.1 °F 56% 30.46 in 10.0 mi Calm Calm - N/A   Overcast
9:53 PM 28.0 °F - 16.0 °F 61% 30.48 in 10.0 mi Calm Calm - N/A   Overcast
10:53 PM 27.0 °F - 19.0 °F 72% 30.48 in 10.0 mi Calm Calm - N/A   Mostly Cloudy
11:53 PM 26.1 °F - 19.0 °F 75% 30.52 in 10.0 mi Calm Calm - N/A   Mostly Cloudy